Location: ????????
(55.5667°N, 37.5833°E)
Time: 09:50:18
(UTC+00:00)

Meteor 1-27 - Pass Details

Date: 14 April 2026
Orbit: 835 x 892 km, 81.3° (Epoch: 10 May)

Event Time Altitude Azimuth Distance (km) Brightness Sun altitude
Exits shadow 22:04:32 60° 196° (SSW) 1,009 4.2 -24.4°
Maximum altitude 22:05:41 88° 283° (WNW) 891 4.2 -24.3°
Drops below altitude 10° 22:11:29 10° 14° (NNE) 2,537 7.8 -24.2°
Sets 22:13:55 0° 15° (NNE) 3,470 8.8 -24.1°
